Wilmington, DE

5:50 PM EST on November 11, 2019 (GMT -0500)
New Castle County

Weather History for KILG - September, 2019

Change the Weather History Date:

Thursday, September 19, 2019

  Actual Average Record
Temperature  
Mean Temperature 61 °F 67 °F  
Max Temperature 73 °F 76 °F 94 °F (1983)
Min Temperature 49 °F 57 °F 40 °F (1929)
Degree Days  
Heating Degree Days 4 2  
Month to date heating degree days 5 15  
Since 1 July heating degree days 5 17  
Cooling Degree Days 0 4  
Month to date cooling degree days 151 108  
Year to date cooling degree days 1381 1101  
Growing Degree Days 10 (Base 50)    
Moisture  
Dew Point 47 °F    
Average Humidity 67    
Maximum Humidity 96    
Minimum Humidity 38    
Precipitation  
Precipitation 0.00 in 0.15 in 2.33 in (1960)
Month to date precipitation 0.29 2.59  
Year to date precipitation 36.41 31.35  
Snow  
Snow 0.00 in 0.00 in 0.00 in (1894)
Month to date snowfall 0.0 0.0  
Since 1 July snowfall 0.0 0.0  
Since 1 September snowfall 0.0 0.0  
Snow Depth 0.00 in    
Sea Level Pressure  
Sea Level Pressure 30.32 in    
Wind  
Wind Speed 4 mph (NNE)    
Max Wind Speed 14 mph    
Max Gust Speed 20 mph    
Visibility 10 miles    
Events      
T = Trace of Precipitation, MM = Missing Value Source: NWS Daily Summary

Daily Weather History Graph

Daily Weather History Graph

Search for Another Location

Airport or City:

Astronomy

Sep. 19, 2019 Rise Set
Actual Time 6:47 AM EDT 7:04 PM EDT
Civil Twilight 6:20 AM EDT 7:31 PM EDT
Nautical Twilight 5:48 AM EDT 8:03 PM EDT
Astronomical Twilight 5:16 AM EDT 8:35 PM EDT
Moon 10:13 PM EDT (9/19) 11:47 AM EDT (9/19)
Length of Visible Light 13h 11m
Length of Day
12h 17m
Waning Gibbous, 74% of the Moon is Illuminated
Sep 19
Waning Gibbous
Sep 21
Last Quarter
Sep 28
New
Oct 5
First Quarter
Oct 13
Full

Hourly Weather History & Observations

Time (EDT) Temp. Dew Point Humidity Pressure Visibility Wind Dir Wind Speed Gust Speed Precip Events Conditions
12:51 AM 59.0 °F 50.0 °F 72% 30.30 in 10.0 mi ENE 5.8 mph - N/A   Clear
1:51 AM 59.0 °F 48.9 °F 69% 30.30 in 10.0 mi ENE 6.9 mph - N/A   Clear
2:51 AM 57.0 °F 48.0 °F 72% 30.30 in 10.0 mi NNE 3.5 mph - N/A   Clear
3:51 AM 54.0 °F 50.0 °F 86% 30.31 in 10.0 mi North 3.5 mph - N/A   Clear
4:51 AM 52.0 °F 50.0 °F 93% 30.32 in 10.0 mi North 4.6 mph - N/A   Clear
5:51 AM 51.1 °F 48.0 °F 89% 30.33 in 10.0 mi North 3.5 mph - N/A   Clear
6:51 AM 48.9 °F 46.9 °F 93% 30.34 in 10.0 mi NNW 5.8 mph - N/A   Clear
7:51 AM 55.0 °F 48.9 °F 80% 30.35 in 10.0 mi NNW 4.6 mph - N/A   Clear
8:51 AM 61.0 °F 46.0 °F 58% 30.36 in 10.0 mi ENE 12.7 mph - N/A   Clear
9:51 AM 63.0 °F 46.0 °F 54% 30.38 in 10.0 mi NE 8.1 mph - N/A   Clear
10:51 AM 64.9 °F 46.0 °F 50% 30.37 in 10.0 mi Variable 4.6 mph - N/A   Clear
11:51 AM 66.0 °F 46.0 °F 48% 30.37 in 10.0 mi Variable 3.5 mph - N/A   Clear
12:51 PM 66.9 °F 45.0 °F 45% 30.35 in 10.0 mi Calm Calm - N/A   Clear
1:51 PM 69.1 °F 46.0 °F 44% 30.34 in 10.0 mi Variable 4.6 mph - N/A   Clear
2:51 PM 70.0 °F 45.0 °F 41% 30.32 in 10.0 mi ESE 5.8 mph - N/A   Clear
3:51 PM 72.0 °F 46.0 °F 40% 30.30 in 10.0 mi Variable 3.5 mph - N/A   Clear
4:51 PM 72.0 °F 45.0 °F 38% 30.30 in 10.0 mi Calm Calm - N/A   Clear
5:51 PM 72.0 °F 44.1 °F 37% 30.30 in 10.0 mi Calm Calm - N/A   Clear
6:51 PM 69.1 °F 44.1 °F 40% 30.30 in 10.0 mi Calm Calm - N/A   Clear
7:51 PM 66.0 °F 45.0 °F 47% 30.30 in 10.0 mi ENE 3.5 mph - N/A   Clear
8:51 PM 63.0 °F 46.9 °F 56% 30.30 in 10.0 mi Calm Calm - N/A   Clear
9:51 PM 60.1 °F 50.0 °F 69% 30.30 in 10.0 mi SW 4.6 mph - N/A   Clear
10:51 PM 57.0 °F 50.0 °F 77% 30.30 in 10.0 mi Calm Calm - N/A   Clear
11:51 PM 55.9 °F 50.0 °F 80% 30.30 in 10.0 mi WSW 3.5 mph - N/A   Clear